Zurück zum Katalog

STARLINK-5204

AktivKommunikationVLEO
NORAD 54101·PAYLOAD·🇺🇸 United States

Gestartet Oct 20, 2022 von Cape Canaveral Space Force Station

Loading…

Nächste Überflüge (nächste 24 Stunden)

TLE

AktuellSource: CelesTrak SupGP

Epoche: Sep 14, 2026, 21:10 UTC

1 54101C 22136BC  26257.88243056 -.00018629  00000+0 -59895-3 0  2576
2 54101  53.1589 176.9931 0001381  94.0545 140.6595 15.31717380    17

Verfolge STARLINK-5204 in Echtzeit mit AllMySat

Download on the App Store